Time,TemperatureF,DewpointF,PressureIn,WindDirection,WindDirectionDegrees,WindSpeedMPH,WindSpeedGustMPH,Humidity,HourlyPrecipIn,Conditions,Clouds,dailyrainin,SoftwareType,DateUTC
2013-03-05 00:01:00,16.0,9.0,30.15,NW,310,30.0,-999.0,74,-99.99,,,-99.99,,2013-03-05 07:01:00,
2013-03-05 00:11:00,15.0,7.0,30.13,WNW,303,43.0,-999.0,69,-99.99,,,-99.99,,2013-03-05 07:11:00,
2013-03-05 00:22:00,15.0,7.0,30.17,NW,304,42.0,-999.0,69,-99.99,,,-99.99,,2013-03-05 07:22:00,
2013-03-05 00:31:00,15.0,7.0,30.15,NW,309,28.0,-999.0,71,-99.99,,,-99.99,,2013-03-05 07:31:00,
2013-03-05 00:41:00,15.0,7.0,30.15,NW,309,28.0,-999.0,71,-99.99,,,-99.99,,2013-03-05 07:41:00,
2013-03-05 00:51:00,15.0,7.0,30.17,WNW,303,32.0,-999.0,71,-99.99,,,-99.99,,2013-03-05 07:51:00,
2013-03-05 01:02:00,15.0,7.0,30.17,WNW,303,32.0,-999.0,71,-99.99,,,-99.99,,2013-03-05 08:02:00,
2013-03-05 01:11:00,15.0,7.0,30.18,WNW,302,34.0,-999.0,71,-99.99,,,-99.99,,2013-03-05 08:11:00,
2013-03-05 01:21:00,14.0,7.0,30.18,NW,305,30.0,-999.0,71,-99.99,,,-99.99,,2013-03-05 08:21:00,
2013-03-05 01:31:00,14.0,7.0,30.18,NW,305,30.0,-999.0,71,-99.99,,,-99.99,,2013-03-05 08:31:00,
2013-03-05 01:41:00,14.0,6.0,30.17,WNW,302,27.0,-999.0,70,-99.99,,,-99.99,,2013-03-05 08:41:00,
2013-03-05 01:52:00,14.0,6.0,30.18,NW,307,25.0,-999.0,70,-99.99,,,-99.99,,2013-03-05 08:52:00,
2013-03-05 02:01:00,14.0,7.0,30.20,NW,306,28.0,-999.0,71,-99.99,,,-99.99,,2013-03-05 09:01:00,
2013-03-05 02:11:00,14.0,7.0,30.20,NW,304,23.0,-999.0,74,-99.99,,,-99.99,,2013-03-05 09:11:00,
2013-03-05 02:21:00,14.0,7.0,30.20,NW,304,23.0,-999.0,74,-99.99,,,-99.99,,2013-03-05 09:21:00,
2013-03-05 02:31:00,14.0,8.0,30.20,WNW,299,23.0,-999.0,76,-99.99,,,-99.99,,2013-03-05 09:31:00,
2013-03-05 02:42:00,14.0,7.0,30.19,WNW,296,18.0,-999.0,75,-99.99,,,-99.99,,2013-03-05 09:42:00,
2013-03-05 02:52:00,13.0,7.0,30.21,WNW,299,25.0,-999.0,75,-99.99,,,-99.99,,2013-03-05 09:52:00,
2013-03-05 03:01:00,14.0,7.0,30.20,NW,304,21.0,-999.0,74,-99.99,,,-99.99,,2013-03-05 10:01:00,
2013-03-05 03:11:00,13.0,7.0,30.23,NW,309,22.0,-999.0,75,-99.99,,,-99.99,,2013-03-05 10:11:00,
2013-03-05 03:21:00,13.0,7.0,30.21,NW,306,24.0,-999.0,75,-99.99,,,-99.99,,2013-03-05 10:21:00,
2013-03-05 03:32:00,13.0,7.0,30.23,NW,306,29.0,-999.0,76,-99.99,,,-99.99,,2013-03-05 10:32:00,
2013-03-05 03:42:00,13.0,7.0,30.23,WNW,302,26.0,-999.0,75,-99.99,,,-99.99,,2013-03-05 10:42:00,
2013-03-05 03:52:00,13.0,7.0,30.22,NW,306,29.0,-999.0,75,-99.99,,,-99.99,,2013-03-05 10:52:00,
2013-03-05 04:01:00,13.0,7.0,30.22,NW,306,29.0,-999.0,75,-99.99,,,-99.99,,2013-03-05 11:01:00,
2013-03-05 04:11:00,13.0,6.0,30.21,NW,304,27.0,-999.0,72,-99.99,,,-99.99,,2013-03-05 11:11:00,
2013-03-05 04:22:00,13.0,5.0,30.24,NW,305,28.0,-999.0,72,-99.99,,,-99.99,,2013-03-05 11:22:00,
2013-03-05 04:32:00,13.0,5.0,30.27,NW,306,26.0,-999.0,71,-99.99,,,-99.99,,2013-03-05 11:32:00,
2013-03-05 04:42:00,13.0,5.0,30.26,NW,308,31.0,-999.0,70,-99.99,,,-99.99,,2013-03-05 11:42:00,
2013-03-05 04:52:00,12.0,4.0,30.26,NW,306,23.0,-999.0,70,-99.99,,,-99.99,,2013-03-05 11:52:00,
2013-03-05 05:02:00,12.0,4.0,30.27,WNW,300,19.0,-999.0,71,-99.99,,,-99.99,,2013-03-05 12:02:00,
2013-03-05 05:12:00,12.0,4.0,30.29,NW,308,20.0,-999.0,71,-99.99,,,-99.99,,2013-03-05 12:12:00,
2013-03-05 05:22:00,12.0,5.0,30.28,WNW,299,24.0,-999.0,72,-99.99,,,-99.99,,2013-03-05 12:22:00,
2013-03-05 05:32:00,11.0,5.0,30.29,NW,304,18.0,-999.0,73,-99.99,,,-99.99,,2013-03-05 12:32:00,
2013-03-05 05:42:00,11.0,4.0,30.29,NW,308,26.0,-999.0,73,-99.99,,,-99.99,,2013-03-05 12:42:00,
2013-03-05 05:52:00,11.0,4.0,30.28,NW,317,24.0,-999.0,73,-99.99,,,-99.99,,2013-03-05 12:52:00,
2013-03-05 06:02:00,11.0,4.0,30.28,NW,321,19.0,-999.0,73,-99.99,,,-99.99,,2013-03-05 13:02:00,
2013-03-05 06:11:00,11.0,4.0,30.29,NW,315,24.0,-999.0,74,-99.99,,,-99.99,,2013-03-05 13:11:00,
2013-03-05 06:21:00,10.0,4.0,30.29,NW,312,27.0,-999.0,75,-99.99,,,-99.99,,2013-03-05 13:21:00,
2013-03-05 06:32:00,10.0,4.0,30.29,NW,313,21.0,-999.0,76,-99.99,,,-99.99,,2013-03-05 13:32:00,
2013-03-05 06:42:00,10.0,4.0,30.28,NW,309,18.0,-999.0,76,-99.99,,,-99.99,,2013-03-05 13:42:00,
2013-03-05 06:52:00,10.0,4.0,30.30,NW,304,16.0,-999.0,76,-99.99,,,-99.99,,2013-03-05 13:52:00,
2013-03-05 07:02:00,10.0,4.0,30.33,WNW,293,15.0,-999.0,76,-99.99,,,-99.99,,2013-03-05 14:02:00,
2013-03-05 07:11:00,10.0,4.0,30.32,WNW,290,18.0,-999.0,75,-99.99,,,-99.99,,2013-03-05 14:11:00,
2013-03-05 07:21:00,10.0,4.0,30.29,WNW,297,24.0,-999.0,75,-99.99,,,-99.99,,2013-03-05 14:21:00,
2013-03-05 07:32:00,10.0,4.0,30.30,NW,316,20.0,-999.0,74,-99.99,,,-99.99,,2013-03-05 14:32:00,
2013-03-05 07:42:00,10.0,4.0,30.31,NW,315,21.0,-999.0,74,-99.99,,,-99.99,,2013-03-05 14:42:00,
2013-03-05 07:52:00,11.0,4.0,30.30,NW,309,23.0,-999.0,73,-99.99,,,-99.99,,2013-03-05 14:52:00,
2013-03-05 08:01:00,11.0,4.0,30.30,NW,309,22.0,-999.0,73,-99.99,,,-99.99,,2013-03-05 15:01:00,
2013-03-05 08:11:00,11.0,4.0,30.32,NW,319,19.0,-999.0,72,-99.99,,,-99.99,,2013-03-05 15:11:00,
2013-03-05 08:21:00,12.0,4.0,30.30,NNW,327,22.0,-999.0,71,-99.99,,,-99.99,,2013-03-05 15:21:00,
2013-03-05 08:32:00,12.0,5.0,30.32,NW,315,18.0,-999.0,71,-99.99,,,-99.99,,2013-03-05 15:32:00,
2013-03-05 08:42:00,13.0,5.0,30.32,NW,322,22.0,-999.0,69,-99.99,,,-99.99,,2013-03-05 15:42:00,
2013-03-05 08:52:00,13.0,5.0,30.34,NW,319,20.0,-999.0,69,-99.99,,,-99.99,,2013-03-05 15:52:00,
2013-03-05 09:01:00,14.0,5.0,30.33,NNW,336,14.0,-999.0,68,-99.99,,,-99.99,,2013-03-05 16:01:00,
2013-03-05 09:11:00,14.0,6.0,30.34,NW,324,14.0,-999.0,68,-99.99,,,-99.99,,2013-03-05 16:11:00,
2013-03-05 09:21:00,15.0,6.0,30.32,NW,321,16.0,-999.0,66,-99.99,,,-99.99,,2013-03-05 16:21:00,
2013-03-05 09:32:00,16.0,6.0,30.34,NW,319,14.0,-999.0,64,-99.99,,,-99.99,,2013-03-05 16:32:00,
2013-03-05 09:42:00,16.0,6.0,30.34,NW,319,14.0,-999.0,64,-99.99,,,-99.99,,2013-03-05 16:42:00,
2013-03-05 09:51:00,16.0,5.0,30.32,NNW,332,18.0,-999.0,63,-99.99,,,-99.99,,2013-03-05 16:51:00,
2013-03-05 10:01:00,18.0,6.0,30.33,North,-999,19.0,-999.0,60,-99.99,,,-99.99,,2013-03-05 17:01:00,
2013-03-05 10:11:00,17.0,6.0,30.32,NNW,329,16.0,-999.0,60,-99.99,,,-99.99,,2013-03-05 17:11:00,
2013-03-05 10:21:00,17.0,6.0,30.33,NNW,334,21.0,-999.0,61,-99.99,,,-99.99,,2013-03-05 17:21:00,
2013-03-05 10:32:00,17.0,5.0,30.31,NW,319,18.0,-999.0,58,-99.99,,,-99.99,,2013-03-05 17:32:00,
2013-03-05 10:42:00,18.0,7.0,30.33,NNW,331,10.0,-999.0,59,-99.99,,,-99.99,,2013-03-05 17:42:00,
2013-03-05 10:52:00,18.0,6.0,30.32,NW,307,19.0,-999.0,58,-99.99,,,-99.99,,2013-03-05 17:52:00,
2013-03-05 11:02:00,20.0,6.0,30.30,NNW,338,14.0,-999.0,54,-99.99,,,-99.99,,2013-03-05 18:02:00,
2013-03-05 11:11:00,19.0,6.0,30.31,NW,317,13.0,-999.0,56,-99.99,,,-99.99,,2013-03-05 18:11:00,
2013-03-05 11:22:00,20.0,6.0,30.30,NNW,332,12.0,-999.0,54,-99.99,,,-99.99,,2013-03-05 18:22:00,
2013-03-05 11:32:00,20.0,5.0,30.31,NW,312,17.0,-999.0,51,-99.99,,,-99.99,,2013-03-05 18:32:00,
2013-03-05 11:42:00,21.0,5.0,30.32,NW,317,9.0,-999.0,50,-99.99,,,-99.99,,2013-03-05 18:42:00,
2013-03-05 11:52:00,21.0,6.0,30.32,NW,311,17.0,-999.0,50,-99.99,,,-99.99,,2013-03-05 18:52:00,
2013-03-05 12:01:00,22.0,6.0,30.31,NNW,339,16.0,-999.0,48,-99.99,,,-99.99,,2013-03-05 19:01:00,
2013-03-05 12:11:00,22.0,5.0,30.32,NW,324,15.0,-999.0,46,-99.99,,,-99.99,,2013-03-05 19:11:00,
2013-03-05 12:21:00,23.0,5.0,30.32,NW,316,17.0,-999.0,46,-99.99,,,-99.99,,2013-03-05 19:21:00,
2013-03-05 12:32:00,24.0,6.0,30.29,North,-999,11.0,-999.0,46,-99.99,,,-99.99,,2013-03-05 19:32:00,
2013-03-05 12:42:00,24.0,6.0,30.32,NW,304,8.0,-999.0,45,-99.99,,,-99.99,,2013-03-05 19:42:00,
2013-03-05 12:52:00,23.0,6.0,30.32,WNW,290,9.0,-999.0,47,-99.99,,,-99.99,,2013-03-05 19:52:00,
2013-03-05 13:01:00,24.0,6.0,30.33,NW,309,11.0,-999.0,44,-99.99,,,-99.99,,2013-03-05 20:01:00,
2013-03-05 13:11:00,25.0,6.0,30.30,NW,306,14.0,-999.0,44,-99.99,,,-99.99,,2013-03-05 20:11:00,
2013-03-05 13:21:00,24.0,6.0,30.30,NW,325,6.0,-999.0,45,-99.99,,,-99.99,,2013-03-05 20:21:00,
2013-03-05 13:32:00,25.0,6.0,30.30,NW,324,10.0,-999.0,43,-99.99,,,-99.99,,2013-03-05 20:32:00,
2013-03-05 13:42:00,26.0,7.0,30.29,NW,310,11.0,-999.0,44,-99.99,,,-99.99,,2013-03-05 20:42:00,
2013-03-05 13:52:00,25.0,6.0,30.29,WNW,290,13.0,-999.0,43,-99.99,,,-99.99,,2013-03-05 20:52:00,
2013-03-05 14:02:00,26.0,6.0,30.31,NNW,332,8.0,-999.0,42,-99.99,,,-99.99,,2013-03-05 21:02:00,
2013-03-05 14:11:00,27.0,6.0,30.28,South,174,5.0,-999.0,41,-99.99,,,-99.99,,2013-03-05 21:11:00,
2013-03-05 14:21:00,28.0,5.0,30.27,South,173,2.0,-999.0,37,-99.99,,,-99.99,,2013-03-05 21:21:00,
2013-03-05 14:32:00,27.0,6.0,30.29,NNW,331,7.0,-999.0,40,-99.99,,,-99.99,,2013-03-05 21:32:00,
2013-03-05 14:42:00,29.0,5.0,30.29,NNE,29,7.0,-999.0,36,-99.99,,,-99.99,,2013-03-05 21:42:00,
2013-03-05 14:52:00,28.0,5.0,30.28,North,8,8.0,-999.0,37,-99.99,,,-99.99,,2013-03-05 21:52:00,
2013-03-05 15:01:00,29.0,6.0,30.27,NNE,28,7.0,-999.0,37,-99.99,,,-99.99,,2013-03-05 22:01:00,
2013-03-05 15:11:00,28.0,5.0,30.27,NNE,30,11.0,-999.0,37,-99.99,,,-99.99,,2013-03-05 22:11:00,
2013-03-05 15:22:00,28.0,5.0,30.26,NNE,22,9.0,-999.0,37,-99.99,,,-99.99,,2013-03-05 22:22:00,
2013-03-05 15:32:00,28.0,5.0,30.26,NNE,25,13.0,-999.0,36,-99.99,,,-99.99,,2013-03-05 22:32:00,
2013-03-05 15:42:00,27.0,6.0,30.27,NE,47,8.0,-999.0,39,-99.99,,,-99.99,,2013-03-05 22:42:00,
2013-03-05 15:52:00,27.0,6.0,30.27,NE,50,12.0,-999.0,39,-99.99,,,-99.99,,2013-03-05 22:52:00,
2013-03-05 16:01:00,28.0,5.0,30.28,NNE,21,9.0,-999.0,37,-99.99,,,-99.99,,2013-03-05 23:01:00,
2013-03-05 16:11:00,29.0,5.0,30.27,NNE,27,9.0,-999.0,36,-99.99,,,-99.99,,2013-03-05 23:11:00,
2013-03-05 16:21:00,28.0,6.0,30.28,NNE,28,11.0,-999.0,38,-99.99,,,-99.99,,2013-03-05 23:21:00,
2013-03-05 16:32:00,28.0,5.0,30.27,NNE,16,8.0,-999.0,37,-99.99,,,-99.99,,2013-03-05 23:32:00,
2013-03-05 16:42:00,29.0,6.0,30.28,NNE,20,6.0,-999.0,36,-99.99,,,-99.99,,2013-03-05 23:42:00,
2013-03-05 16:52:00,29.0,6.0,30.24,North,8,6.0,-999.0,37,-99.99,,,-99.99,,2013-03-05 23:52:00,
2013-03-05 17:01:00,29.0,6.0,30.24,North,8,6.0,-999.0,37,-99.99,,,-99.99,,2013-03-06 00:01:00,
2013-03-05 17:11:00,28.0,6.0,30.26,NNE,25,8.0,-999.0,39,-99.99,,,-99.99,,2013-03-06 00:11:00,
2013-03-05 17:21:00,27.0,6.0,30.28,NE,49,6.0,-999.0,40,-99.99,,,-99.99,,2013-03-06 00:21:00,
2013-03-05 17:32:00,26.0,7.0,30.26,NE,46,6.0,-999.0,43,-99.99,,,-99.99,,2013-03-06 00:32:00,
2013-03-05 17:42:00,25.0,7.0,30.28,ENE,66,7.0,-999.0,47,-99.99,,,-99.99,,2013-03-06 00:42:00,
2013-03-05 17:52:00,24.0,7.0,30.28,ENE,61,10.0,-999.0,49,-99.99,,,-99.99,,2013-03-06 00:52:00,
2013-03-05 18:02:00,23.0,8.0,30.27,ENE,73,10.0,-999.0,52,-99.99,,,-99.99,,2013-03-06 01:02:00,
2013-03-05 18:11:00,22.0,8.0,30.27,ENE,72,11.0,-999.0,53,-99.99,,,-99.99,,2013-03-06 01:11:00,
2013-03-05 18:21:00,22.0,8.0,30.27,ENE,74,9.0,-999.0,54,-99.99,,,-99.99,,2013-03-06 01:21:00,
2013-03-05 18:32:00,21.0,8.0,30.25,East,89,8.0,-999.0,56,-99.99,,,-99.99,,2013-03-06 01:32:00,
2013-03-05 18:42:00,20.0,8.0,30.26,East,90,10.0,-999.0,57,-99.99,,,-99.99,,2013-03-06 01:42:00,
2013-03-05 18:51:00,20.0,8.0,30.27,East,90,11.0,-999.0,60,-99.99,,,-99.99,,2013-03-06 01:51:00,
2013-03-05 19:01:00,20.0,8.0,30.27,East,90,11.0,-999.0,60,-99.99,,,-99.99,,2013-03-06 02:01:00,
2013-03-05 19:11:00,20.0,8.0,30.27,East,94,11.0,-999.0,60,-99.99,,,-99.99,,2013-03-06 02:11:00,
2013-03-05 19:22:00,20.0,8.0,30.24,East,95,11.0,-999.0,61,-99.99,,,-99.99,,2013-03-06 02:22:00,
2013-03-05 19:32:00,19.0,9.0,30.26,East,90,12.0,-999.0,62,-99.99,,,-99.99,,2013-03-06 02:32:00,
2013-03-05 19:42:00,19.0,9.0,30.25,East,89,13.0,-999.0,64,-99.99,,,-99.99,,2013-03-06 02:42:00,
2013-03-05 19:52:00,19.0,9.0,30.25,East,93,11.0,-999.0,64,-99.99,,,-99.99,,2013-03-06 02:52:00,
2013-03-05 20:02:00,19.0,9.0,30.28,ESE,102,10.0,-999.0,65,-99.99,,,-99.99,,2013-03-06 03:02:00,
2013-03-05 20:11:00,19.0,9.0,30.24,East,96,12.0,-999.0,66,-99.99,,,-99.99,,2013-03-06 03:11:00,
2013-03-05 20:22:00,19.0,10.0,30.23,East,98,12.0,-999.0,67,-99.99,,,-99.99,,2013-03-06 03:22:00,
2013-03-05 20:32:00,18.0,10.0,30.25,East,96,12.0,-999.0,68,-99.99,,,-99.99,,2013-03-06 03:32:00,
2013-03-05 20:42:00,18.0,10.0,30.26,East,97,12.0,-999.0,68,-99.99,,,-99.99,,2013-03-06 03:42:00,
2013-03-05 20:52:00,18.0,10.0,30.26,ESE,104,12.0,-999.0,70,-99.99,,,-99.99,,2013-03-06 03:52:00,
2013-03-05 21:02:00,18.0,10.0,30.25,East,98,10.0,-999.0,71,-99.99,,,-99.99,,2013-03-06 04:02:00,
2013-03-05 21:11:00,16.0,9.0,30.26,ESE,104,9.0,-999.0,74,-99.99,,,-99.99,,2013-03-06 04:11:00,
2013-03-05 21:21:00,17.0,10.0,30.25,ESE,108,11.0,-999.0,75,-99.99,,,-99.99,,2013-03-06 04:21:00,
2013-03-05 21:32:00,17.0,10.0,30.27,ESE,110,14.0,-999.0,75,-99.99,,,-99.99,,2013-03-06 04:32:00,
2013-03-05 21:42:00,16.0,10.0,30.25,ESE,114,12.0,-999.0,77,-99.99,,,-99.99,,2013-03-06 04:42:00,
2013-03-05 21:52:00,15.0,10.0,30.24,ESE,117,15.0,-999.0,79,-99.99,,,-99.99,,2013-03-06 04:52:00,
2013-03-05 22:02:00,16.0,10.0,30.25,ESE,120,12.0,-999.0,77,-99.99,,,-99.99,,2013-03-06 05:02:00,
2013-03-05 22:11:00,15.0,9.0,30.25,ESE,114,13.0,-999.0,79,-99.99,,,-99.99,,2013-03-06 05:11:00,
2013-03-05 22:22:00,15.0,10.0,30.24,ESE,115,12.0,-999.0,80,-99.99,,,-99.99,,2013-03-06 05:22:00,
2013-03-05 22:32:00,15.0,10.0,30.26,ESE,111,10.0,-999.0,80,-99.99,,,-99.99,,2013-03-06 05:32:00,
2013-03-05 22:42:00,15.0,10.0,30.24,ESE,119,11.0,-999.0,80,-99.99,,,-99.99,,2013-03-06 05:42:00,
2013-03-05 22:52:00,14.0,9.0,30.25,ESE,110,10.0,-999.0,81,-99.99,,,-99.99,,2013-03-06 05:52:00,
2013-03-05 23:02:00,14.0,9.0,30.25,ESE,110,10.0,-999.0,81,-99.99,,,-99.99,,2013-03-06 06:02:00,
2013-03-05 23:11:00,14.0,9.0,30.24,ESE,108,7.0,-999.0,81,-99.99,,,-99.99,,2013-03-06 06:11:00,
2013-03-05 23:22:00,13.0,9.0,30.24,East,87,7.0,-999.0,82,-99.99,,,-99.99,,2013-03-06 06:22:00,
2013-03-05 23:32:00,14.0,10.0,30.24,SE,138,13.0,-999.0,82,-99.99,,,-99.99,,2013-03-06 06:32:00,
2013-03-05 23:42:00,14.0,10.0,30.24,SE,138,13.0,-999.0,82,-99.99,,,-99.99,,2013-03-06 06:42:00,
2013-03-05 23:52:00,14.0,10.0,30.24,SE,127,11.0,-999.0,82,-99.99,,,-99.99,,2013-03-06 06:52:00,